Tracking 28790 objects as of 19-Apr-2024
HD Live streaming from Space Station
objects crossing your sky now

FENGYUN 1C DEB

Track FENGYUN 1C DEB now!
10-day predictions


NORAD ID: 36236
Int'l Code: 1999-025DVM
Perigee: 855.8 km
Apogee: 1,077.8 km
Inclination: 98.9 °
Period: 104.3 minutes
Semi major axis: 7337 km
RCS: 0.0104 m2 (small)
Launch date: May 10, 1999
Source: People's Republic of China (PRC)
Launch site: Taiyaun Space Center, China (TSC)

Note: This is SATELLITE DEBRIS
Your satellite tracking list
Your tracking list is empty




NASA's NSSDC Master Catalog

Two Line Element Set (TLE):
1 36236U 99025DVM 24102.97082182  .00000404  00000-0  38537-3 0  9998
2 36236  98.9222 172.3195 0151318 197.0965 162.5060 13.81191931513273
Source of the keplerian elements: AFSPC